User: anonymous   Login
Location: Sherrills_Ford_Terrell
(35.6000°N, 80.9830°W)
Time: 18:38:48
(UTC-04:00)
Language:

CZ-4B R/B - Orbit

View from above orbital plane
View from above orbital plane
View from above satellite
View from above satellite

Ground track
Ground track

The orbit data is extracted from the following two-line orbital elements,

1 29093U 06015B   16243.57270975  .00003150  00000-0  82390-4 0  9998
2 29093  97.4865 342.2826 0066717 281.3613  78.0141 15.37301820572849
Epoch (UTC): 30 August 2016 13:44:42
Eccentricity: 0.0066717
inclination: 97.4865°
perigee height: 408 km
apogee height: 499 km
right ascension of ascending node: 342.2826°
argument of perigee: 281.3613°
revolutions per day: 15.37301820
mean anomaly at epoch: 78.0141°
orbit number at epoch: 57284

The dashed part of the orbit path shows where the satellite is in the earth's shadow,  

DLR